Time,TemperatureF,DewpointF,PressureIn,WindDirection,WindDirectionDegrees,WindSpeedMPH,WindSpeedGustMPH,Humidity,HourlyPrecipIn,Conditions,Clouds,dailyrainin,SoftwareType,DateUTC
2013-05-19 00:01:00,46.9,39.1,29.82,NNE,22,0.0,0.0,74,0.00,,---,0.00,VWS V14.01,2013-05-19 04:01:00,
2013-05-19 00:02:00,46.9,39.1,29.82,NNE,22,0.0,0.0,74,0.00,,---,0.00,VWS V14.01,2013-05-19 04:02:00,
2013-05-19 00:03:00,46.9,39.1,29.82,NNE,22,0.0,0.0,74,0.00,,---,0.00,VWS V14.01,2013-05-19 04:03:00,
2013-05-19 00:08:00,46.9,39.1,29.82,NNE,22,0.0,0.0,74,0.00,,---,0.00,VWS V14.01,2013-05-19 04:08:00,
2013-05-19 00:13:00,46.8,38.9,29.82,NNE,22,0.0,0.0,74,0.00,,---,0.00,VWS V14.01,2013-05-19 04:13:00,
2013-05-19 00:17:00,46.6,38.8,29.82,NNE,22,0.0,0.0,74,0.00,,---,0.00,VWS V14.01,2013-05-19 04:17:00,
2013-05-19 00:23:00,46.4,38.6,29.82,NNE,22,0.0,0.0,74,0.00,,---,0.00,VWS V14.01,2013-05-19 04:23:00,
2013-05-19 00:29:00,46.2,38.8,29.82,NNE,22,0.0,0.0,75,0.00,,---,0.00,VWS V14.01,2013-05-19 04:29:00,
2013-05-19 00:34:00,46.0,38.6,29.82,NNE,22,0.0,0.0,75,0.00,,---,0.00,VWS V14.01,2013-05-19 04:34:00,
2013-05-19 00:39:00,45.9,38.4,29.82,NNE,22,0.0,0.0,75,0.00,,---,0.00,VWS V14.01,2013-05-19 04:39:00,
2013-05-19 00:44:00,45.7,38.2,29.82,NNE,22,0.0,0.0,75,0.00,,---,0.00,VWS V14.01,2013-05-19 04:44:00,
2013-05-19 00:50:00,45.5,38.0,29.82,NNE,22,0.0,0.0,75,0.00,,---,0.00,VWS V14.01,2013-05-19 04:50:00,
2013-05-19 00:55:00,45.3,37.9,29.82,NNE,22,0.0,0.0,75,0.00,,---,0.00,VWS V14.01,2013-05-19 04:55:00,
2013-05-19 01:00:00,45.1,37.7,29.82,NNE,22,1.6,2.0,75,0.00,,---,0.00,VWS V14.01,2013-05-19 05:00:00,
2013-05-19 01:05:00,45.0,37.5,29.82,NNE,22,0.0,0.0,75,0.00,,---,0.00,VWS V14.01,2013-05-19 05:05:00,
2013-05-19 01:10:00,44.8,37.3,29.82,NNE,22,0.0,0.0,75,0.00,,---,0.00,VWS V14.01,2013-05-19 05:10:00,
2013-05-19 01:15:00,44.6,37.2,29.82,NNE,22,0.0,0.0,75,0.00,,---,0.00,VWS V14.01,2013-05-19 05:15:00,
2013-05-19 01:20:00,44.2,37.2,29.82,NNE,22,0.0,0.0,76,0.00,,---,0.00,VWS V14.01,2013-05-19 05:20:00,
2013-05-19 01:26:00,43.9,36.8,29.82,NNE,22,0.0,0.0,76,0.00,,---,0.00,VWS V14.01,2013-05-19 05:26:00,
2013-05-19 01:31:00,43.7,36.6,29.82,NNE,22,0.0,0.0,76,0.00,,---,0.00,VWS V14.01,2013-05-19 05:31:00,
2013-05-19 01:36:00,43.5,36.5,29.82,NNE,22,0.0,0.0,76,0.00,,---,0.00,VWS V14.01,2013-05-19 05:36:00,
2013-05-19 01:42:00,43.2,36.1,29.82,NNE,22,0.0,0.0,76,0.00,,---,0.00,VWS V14.01,2013-05-19 05:42:00,
2013-05-19 01:47:00,42.8,35.8,29.82,NNE,22,0.0,0.0,76,0.00,,---,0.00,VWS V14.01,2013-05-19 05:47:00,
2013-05-19 01:52:00,42.8,35.8,29.82,NNE,22,1.1,2.0,76,0.00,,---,0.00,VWS V14.01,2013-05-19 05:52:00,
2013-05-19 01:58:00,42.4,35.4,29.82,NNE,22,1.3,1.3,76,0.00,,---,0.00,VWS V14.01,2013-05-19 05:58:00,
2013-05-19 02:03:00,42.3,35.6,29.82,NNE,22,0.0,1.3,77,0.00,,---,0.00,VWS V14.01,2013-05-19 06:03:00,
2013-05-19 02:08:00,42.1,35.4,29.82,NNE,22,2.0,2.2,77,0.00,,---,0.00,VWS V14.01,2013-05-19 06:08:00,
2013-05-19 02:13:00,41.7,35.0,29.82,North,0,0.0,0.0,77,0.00,,---,0.00,VWS V14.01,2013-05-19 06:13:00,
2013-05-19 02:18:00,41.5,34.9,29.82,NNW,338,0.0,0.0,77,0.00,,---,0.00,VWS V14.01,2013-05-19 06:18:00,
2013-05-19 02:23:00,41.5,34.9,29.82,NNW,338,0.0,0.0,77,0.00,,---,0.00,VWS V14.01,2013-05-19 06:23:00,
2013-05-19 02:30:00,41.2,34.5,29.82,NNW,338,0.0,0.0,77,0.00,,---,0.00,VWS V14.01,2013-05-19 06:30:00,
2013-05-19 02:36:00,41.0,34.3,29.82,West,270,1.1,1.1,77,0.00,,---,0.00,VWS V14.01,2013-05-19 06:36:00,
2013-05-19 02:42:00,40.8,34.2,29.82,West,270,0.0,0.0,77,0.00,,---,0.00,VWS V14.01,2013-05-19 06:42:00,
2013-05-19 02:47:00,40.6,34.3,29.82,West,270,0.0,0.0,78,0.00,,---,0.00,VWS V14.01,2013-05-19 06:47:00,
2013-05-19 02:52:00,40.5,34.2,29.82,West,270,0.0,0.0,78,0.00,,---,0.00,VWS V14.01,2013-05-19 06:52:00,
2013-05-19 02:57:00,40.3,34.0,29.82,West,270,0.0,0.0,78,0.00,,---,0.00,VWS V14.01,2013-05-19 06:57:00,
2013-05-19 03:03:00,40.1,33.8,29.82,West,270,0.0,0.0,78,0.00,,---,0.00,VWS V14.01,2013-05-19 07:03:00,
2013-05-19 03:08:00,39.9,33.3,29.82,West,270,0.0,0.0,77,0.00,,---,0.00,VWS V14.01,2013-05-19 07:08:00,
2013-05-19 03:13:00,39.7,33.5,29.82,West,270,0.0,0.0,78,0.00,,---,0.00,VWS V14.01,2013-05-19 07:13:00,
2013-05-19 03:18:00,39.7,33.5,29.82,West,270,0.0,0.0,78,0.00,,---,0.00,VWS V14.01,2013-05-19 07:18:00,
2013-05-19 03:23:00,39.6,33.3,29.82,West,270,1.6,1.6,78,0.00,,---,0.00,VWS V14.01,2013-05-19 07:23:00,
2013-05-19 03:28:00,39.4,33.1,29.82,West,270,1.3,1.3,78,0.00,,---,0.00,VWS V14.01,2013-05-19 07:28:00,
2013-05-19 03:33:00,39.4,33.1,29.82,West,270,0.0,0.0,78,0.00,,---,0.00,VWS V14.01,2013-05-19 07:33:00,
2013-05-19 03:38:00,39.6,33.3,29.82,WSW,248,1.3,2.0,78,0.00,,---,0.00,VWS V14.01,2013-05-19 07:38:00,
2013-05-19 03:43:00,39.7,33.8,29.82,WSW,248,0.0,1.3,79,0.00,,---,0.00,VWS V14.01,2013-05-19 07:43:00,
2013-05-19 03:49:00,39.7,33.8,29.82,WSW,248,0.0,0.0,79,0.00,,---,0.00,VWS V14.01,2013-05-19 07:49:00,
2013-05-19 03:54:00,39.9,34.0,29.82,WSW,248,0.0,0.0,79,0.00,,---,0.00,VWS V14.01,2013-05-19 07:54:00,
2013-05-19 03:59:00,40.1,34.4,29.82,WSW,248,0.0,0.0,80,0.00,,---,0.00,VWS V14.01,2013-05-19 07:59:00,
2013-05-19 04:04:00,40.3,34.9,29.82,WSW,248,0.0,0.0,81,0.00,,---,0.00,VWS V14.01,2013-05-19 08:04:00,
2013-05-19 04:09:00,40.5,35.1,29.85,WSW,248,0.0,0.0,81,0.00,,---,0.00,VWS V14.01,2013-05-19 08:09:00,
2013-05-19 04:15:00,40.6,35.3,29.85,WSW,248,0.0,0.0,81,0.00,,---,0.00,VWS V14.01,2013-05-19 08:15:00,
2013-05-19 04:20:00,40.8,35.5,29.85,WSW,248,0.0,0.0,81,0.00,,---,0.00,VWS V14.01,2013-05-19 08:20:00,
2013-05-19 04:25:00,41.0,35.6,29.85,WSW,248,0.0,0.0,81,0.00,,---,0.00,VWS V14.01,2013-05-19 08:25:00,
2013-05-19 04:30:00,41.0,35.6,29.85,WSW,248,0.0,0.0,81,0.00,,---,0.00,VWS V14.01,2013-05-19 08:30:00,
2013-05-19 04:36:00,41.0,35.6,29.85,WSW,248,0.0,0.0,81,0.00,,---,0.00,VWS V14.01,2013-05-19 08:36:00,
2013-05-19 04:41:00,41.0,35.6,29.85,WSW,248,0.0,0.0,81,0.00,,---,0.00,VWS V14.01,2013-05-19 08:41:00,
2013-05-19 04:46:00,41.0,35.6,29.85,WSW,248,0.0,0.0,81,0.00,,---,0.00,VWS V14.01,2013-05-19 08:46:00,
2013-05-19 04:51:00,41.0,35.6,29.85,WSW,248,0.0,0.0,81,0.00,,---,0.00,VWS V14.01,2013-05-19 08:51:00,
2013-05-19 04:57:00,41.0,35.6,29.85,WSW,248,0.0,0.0,81,0.00,,---,0.00,VWS V14.01,2013-05-19 08:57:00,
2013-05-19 05:02:00,41.0,35.6,29.85,WSW,248,0.0,0.0,81,0.00,,---,0.00,VWS V14.01,2013-05-19 09:02:00,
2013-05-19 05:07:00,41.0,35.6,29.85,WSW,248,0.0,0.0,81,0.00,,---,0.00,VWS V14.01,2013-05-19 09:07:00,
2013-05-19 05:12:00,41.0,35.6,29.85,WSW,248,0.0,0.0,81,0.00,,---,0.00,VWS V14.01,2013-05-19 09:12:00,
2013-05-19 05:18:00,41.0,35.6,29.85,WSW,248,1.1,1.6,81,0.00,,---,0.00,VWS V14.01,2013-05-19 09:18:00,
2013-05-19 05:23:00,42.4,37.7,29.85,WSW,248,0.0,0.0,83,0.00,,---,0.00,VWS V14.01,2013-05-19 09:23:00,
2013-05-19 05:28:00,42.6,37.8,29.85,WSW,248,0.0,0.0,83,0.00,,---,0.00,VWS V14.01,2013-05-19 09:28:00,
2013-05-19 05:34:00,42.8,38.0,29.85,WSW,248,0.0,0.0,83,0.00,,---,0.00,VWS V14.01,2013-05-19 09:34:00,
2013-05-19 05:39:00,42.8,38.0,29.85,WSW,248,0.0,0.0,83,0.00,,---,0.00,VWS V14.01,2013-05-19 09:39:00,
2013-05-19 05:45:00,43.0,38.2,29.85,WNW,292,0.0,0.0,83,0.00,,---,0.00,VWS V14.01,2013-05-19 09:45:00,
2013-05-19 05:51:00,43.2,38.4,29.85,WNW,292,0.0,0.0,83,0.00,,---,0.00,VWS V14.01,2013-05-19 09:51:00,
2013-05-19 05:56:00,43.3,38.5,29.88,WNW,292,0.0,0.0,83,0.00,,---,0.00,VWS V14.01,2013-05-19 09:56:00,
2013-05-19 06:01:00,43.5,38.7,29.88,WNW,292,0.0,0.0,83,0.00,,---,0.00,VWS V14.01,2013-05-19 10:01:00,
2013-05-19 06:07:00,43.5,38.4,29.88,NNW,338,0.0,1.3,82,0.00,,---,0.00,VWS V14.01,2013-05-19 10:07:00,
2013-05-19 06:12:00,43.5,38.4,29.88,NNW,338,0.0,0.0,82,0.00,,---,0.00,VWS V14.01,2013-05-19 10:12:00,
2013-05-19 06:17:00,43.5,38.4,29.88,NNW,338,0.0,0.0,82,0.00,,---,0.00,VWS V14.01,2013-05-19 10:17:00,
2013-05-19 06:23:00,43.7,38.6,29.88,West,270,0.0,0.0,82,0.00,,---,0.00,VWS V14.01,2013-05-19 10:23:00,
2013-05-19 06:28:00,43.7,38.9,29.88,West,270,1.3,1.3,83,0.00,,---,0.00,VWS V14.01,2013-05-19 10:28:00,
2013-05-19 06:35:00,44.1,39.2,29.88,West,270,0.0,0.0,83,0.00,,---,0.00,VWS V14.01,2013-05-19 10:35:00,
2013-05-19 06:40:00,44.2,39.4,29.88,West,270,0.0,0.0,83,0.00,,---,0.00,VWS V14.01,2013-05-19 10:40:00,
2013-05-19 06:45:00,44.4,39.6,29.88,West,270,0.0,0.0,83,0.00,,---,0.00,VWS V14.01,2013-05-19 10:45:00,
2013-05-19 06:50:00,44.6,39.8,29.88,West,270,0.0,0.0,83,0.00,,---,0.00,VWS V14.01,2013-05-19 10:50:00,
2013-05-19 06:55:00,44.8,40.2,29.88,West,270,0.0,0.0,84,0.00,,---,0.00,VWS V14.01,2013-05-19 10:55:00,
2013-05-19 07:01:00,45.1,40.6,29.88,West,270,0.0,0.0,84,0.00,,---,0.00,VWS V14.01,2013-05-19 11:01:00,
2013-05-19 07:06:00,45.3,40.8,29.88,WSW,248,0.9,1.3,84,0.00,,---,0.00,VWS V14.01,2013-05-19 11:06:00,
2013-05-19 07:11:00,45.3,40.8,29.88,WSW,248,0.0,0.0,84,0.00,,---,0.00,VWS V14.01,2013-05-19 11:11:00,
2013-05-19 07:16:00,45.9,41.6,29.88,WSW,248,0.0,0.0,85,0.00,,---,0.00,VWS V14.01,2013-05-19 11:16:00,
2013-05-19 07:22:00,46.2,42.0,29.88,WSW,248,1.6,2.2,85,0.00,,---,0.00,VWS V14.01,2013-05-19 11:22:00,
2013-05-19 07:27:00,46.4,41.8,29.88,WSW,248,0.0,0.0,84,0.00,,---,0.00,VWS V14.01,2013-05-19 11:27:00,
2013-05-19 07:33:00,46.4,41.8,29.88,WNW,292,0.0,0.0,84,0.00,,---,0.00,VWS V14.01,2013-05-19 11:33:00,
2013-05-19 07:38:00,46.8,42.2,29.88,NNW,338,1.6,2.0,84,0.00,,---,0.00,VWS V14.01,2013-05-19 11:38:00,
2013-05-19 07:44:00,46.9,42.4,29.88,West,270,1.3,2.2,84,0.00,,---,0.00,VWS V14.01,2013-05-19 11:44:00,
2013-05-19 07:50:00,46.9,42.0,29.88,NNW,338,0.0,0.0,83,0.00,,---,0.00,VWS V14.01,2013-05-19 11:50:00,
2013-05-19 07:55:00,47.1,42.2,29.88,NNW,338,1.1,1.1,83,0.00,,---,0.00,VWS V14.01,2013-05-19 11:55:00,
2013-05-19 08:00:00,47.1,42.2,29.88,WNW,292,0.9,1.6,83,0.00,,---,0.00,VWS V14.01,2013-05-19 12:00:00,
2013-05-19 08:05:00,47.3,42.4,29.88,WNW,292,0.0,0.0,83,0.00,,---,0.00,VWS V14.01,2013-05-19 12:05:00,
2013-05-19 08:11:00,47.7,42.8,29.88,NNE,22,1.6,2.0,83,0.00,,---,0.00,VWS V14.01,2013-05-19 12:11:00,
2013-05-19 08:16:00,48.0,43.1,29.88,ENE,68,0.0,1.3,83,0.00,,---,0.00,VWS V14.01,2013-05-19 12:16:00,
2013-05-19 08:21:00,48.6,43.3,29.88,NE,45,1.1,2.0,82,0.00,,---,0.00,VWS V14.01,2013-05-19 12:21:00,
2013-05-19 08:26:00,48.9,43.7,29.88,NNE,22,0.0,0.0,82,0.00,,---,0.00,VWS V14.01,2013-05-19 12:26:00,
2013-05-19 08:32:00,49.1,43.5,29.88,NNE,22,1.3,1.3,81,0.00,,---,0.00,VWS V14.01,2013-05-19 12:32:00,
2013-05-19 08:37:00,49.3,43.0,29.88,SSW,202,2.7,2.7,79,0.00,,---,0.00,VWS V14.01,2013-05-19 12:37:00,
2013-05-19 08:42:00,49.3,43.0,29.88,East,90,1.3,1.3,79,0.00,,---,0.00,VWS V14.01,2013-05-19 12:42:00,
2013-05-19 08:47:00,49.3,42.7,29.88,East,90,2.5,2.5,78,0.00,,---,0.00,VWS V14.01,2013-05-19 12:47:00,
2013-05-19 08:53:00,49.1,42.2,29.88,East,90,0.0,1.1,77,0.00,,---,0.00,VWS V14.01,2013-05-19 12:53:00,
2013-05-19 08:58:00,48.9,42.0,29.88,East,90,0.0,0.0,77,0.00,,---,0.00,VWS V14.01,2013-05-19 12:58:00,
2013-05-19 09:03:00,49.1,42.2,29.88,East,90,0.0,0.0,77,0.00,,---,0.00,VWS V14.01,2013-05-19 13:03:00,
2013-05-19 09:08:00,49.3,42.7,29.88,WNW,292,2.2,2.5,78,0.00,,---,0.00,VWS V14.01,2013-05-19 13:08:00,
2013-05-19 09:14:00,49.5,42.9,29.88,NNW,338,0.0,0.0,78,0.00,,---,0.00,VWS V14.01,2013-05-19 13:14:00,
2013-05-19 09:19:00,49.8,43.2,29.88,ENE,68,2.0,2.7,78,0.00,,---,0.00,VWS V14.01,2013-05-19 13:19:00,
2013-05-19 09:24:00,50.0,43.1,29.88,East,90,0.9,1.1,77,0.00,,---,0.00,VWS V14.01,2013-05-19 13:24:00,
2013-05-19 09:29:00,50.5,43.6,29.88,South,180,1.1,2.9,77,0.00,,---,0.00,VWS V14.01,2013-05-19 13:29:00,
2013-05-19 09:35:00,50.7,43.4,29.88,NNW,338,0.9,0.9,76,0.00,,---,0.00,VWS V14.01,2013-05-19 13:35:00,
2013-05-19 09:40:00,51.3,44.0,29.88,ENE,68,3.1,3.4,76,0.00,,---,0.00,VWS V14.01,2013-05-19 13:40:00,
2013-05-19 09:45:00,51.6,44.0,29.88,ESE,112,0.0,2.7,75,0.00,,---,0.00,VWS V14.01,2013-05-19 13:45:00,
2013-05-19 09:50:00,51.8,43.8,29.88,ESE,112,0.9,2.0,74,0.00,,---,0.00,VWS V14.01,2013-05-19 13:50:00,
2013-05-19 09:56:00,52.2,44.1,29.88,ENE,68,0.9,1.3,74,0.00,,---,0.00,VWS V14.01,2013-05-19 13:56:00,
2013-05-19 10:01:00,52.3,43.6,29.88,WNW,292,0.0,0.0,72,0.00,,---,0.00,VWS V14.01,2013-05-19 14:01:00,
2013-05-19 10:06:00,52.9,44.1,29.88,SSW,202,2.5,3.4,72,0.00,,---,0.00,VWS V14.01,2013-05-19 14:06:00,
2013-05-19 10:11:00,53.2,44.5,29.88,East,90,0.9,3.1,72,0.00,,---,0.00,VWS V14.01,2013-05-19 14:11:00,
2013-05-19 10:17:00,54.1,45.0,29.88,NNE,22,2.0,2.0,71,0.00,,---,0.00,VWS V14.01,2013-05-19 14:17:00,
2013-05-19 10:22:00,54.9,45.3,29.88,NNE,22,1.3,2.2,70,0.00,,---,0.00,VWS V14.01,2013-05-19 14:22:00,
2013-05-19 10:27:00,54.7,44.3,29.88,ENE,68,0.9,1.6,68,0.00,,---,0.00,VWS V14.01,2013-05-19 14:27:00,
2013-05-19 10:32:00,54.7,44.0,29.88,ENE,68,2.7,2.7,67,0.00,,---,0.00,VWS V14.01,2013-05-19 14:32:00,
2013-05-19 10:38:00,55.6,45.2,29.88,SSW,202,2.2,2.9,68,0.00,,---,0.00,VWS V14.01,2013-05-19 14:38:00,
2013-05-19 10:44:00,55.9,44.8,29.88,East,90,2.0,2.9,66,0.00,,---,0.00,VWS V14.01,2013-05-19 14:44:00,
2013-05-19 10:50:00,56.5,45.3,29.88,NNE,22,4.0,4.0,66,0.00,,---,0.00,VWS V14.01,2013-05-19 14:50:00,
2013-05-19 10:55:00,56.3,44.7,29.85,ENE,68,2.0,3.6,65,0.00,,---,0.00,VWS V14.01,2013-05-19 14:55:00,
2013-05-19 11:00:00,56.3,44.7,29.85,WNW,292,2.9,3.1,65,0.00,,---,0.00,VWS V14.01,2013-05-19 15:00:00,
2013-05-19 11:06:00,56.3,43.9,29.85,NW,315,1.6,2.7,63,0.00,,---,0.00,VWS V14.01,2013-05-19 15:06:00,
2013-05-19 11:11:00,56.5,44.5,29.88,South,180,2.5,2.5,64,0.00,,---,0.00,VWS V14.01,2013-05-19 15:11:00,
2013-05-19 11:16:00,56.8,44.8,29.88,NNW,338,3.4,4.0,64,0.00,,---,0.00,VWS V14.01,2013-05-19 15:16:00,
2013-05-19 11:21:00,57.6,45.9,29.88,NNE,22,1.1,2.9,65,0.00,,---,0.00,VWS V14.01,2013-05-19 15:21:00,
2013-05-19 11:27:00,57.7,44.8,29.85,East,90,1.3,2.7,62,0.00,,---,0.00,VWS V14.01,2013-05-19 15:27:00,
2013-05-19 11:32:00,57.9,45.0,29.85,NNW,338,0.9,2.9,62,0.00,,---,0.00,VWS V14.01,2013-05-19 15:32:00,
2013-05-19 11:37:00,57.9,44.6,29.85,NW,315,0.0,2.5,61,0.00,,---,0.00,VWS V14.01,2013-05-19 15:37:00,
2013-05-19 11:42:00,58.5,45.5,29.88,SSE,158,7.4,7.4,62,0.00,,---,0.00,VWS V14.01,2013-05-19 15:42:00,
2013-05-19 11:48:00,58.6,45.2,29.88,ENE,68,2.9,2.9,61,0.00,,---,0.00,VWS V14.01,2013-05-19 15:48:00,
2013-05-19 11:53:00,58.8,45.4,29.85,ESE,112,4.0,4.0,61,0.00,,---,0.00,VWS V14.01,2013-05-19 15:53:00,
2013-05-19 11:58:00,59.2,44.9,29.85,WSW,248,2.0,2.7,59,0.00,,---,0.00,VWS V14.01,2013-05-19 15:58:00,
2013-05-19 12:03:00,59.7,45.8,29.85,NNE,22,2.9,3.8,60,0.00,,---,0.00,VWS V14.01,2013-05-19 16:03:00,
2013-05-19 12:08:00,59.7,45.4,29.85,SSW,202,2.0,3.4,59,0.00,,---,0.00,VWS V14.01,2013-05-19 16:08:00,
2013-05-19 12:14:00,59.7,44.9,29.85,SSE,158,3.6,4.9,58,0.00,,---,0.00,VWS V14.01,2013-05-19 16:14:00,
2013-05-19 12:19:00,60.1,45.7,29.85,East,90,2.5,4.3,59,0.00,,---,0.00,VWS V14.01,2013-05-19 16:19:00,
2013-05-19 12:24:00,60.3,45.0,29.85,ENE,68,1.6,2.7,57,0.00,,---,0.00,VWS V14.01,2013-05-19 16:24:00,
2013-05-19 12:30:00,61.0,46.1,29.85,ENE,68,3.1,3.1,58,0.00,,---,0.00,VWS V14.01,2013-05-19 16:30:00,
2013-05-19 12:35:00,60.8,45.5,29.85,ENE,68,2.9,2.9,57,0.00,,---,0.00,VWS V14.01,2013-05-19 16:35:00,
2013-05-19 12:40:00,61.0,45.2,29.85,NNW,338,1.6,4.3,56,0.00,,---,0.00,VWS V14.01,2013-05-19 16:40:00,
2013-05-19 12:45:00,61.7,46.8,29.85,NNE,22,1.6,2.7,58,0.00,,---,0.00,VWS V14.01,2013-05-19 16:45:00,
2013-05-19 12:51:00,62.1,46.7,29.85,ENE,68,2.5,3.8,57,0.00,,---,0.00,VWS V14.01,2013-05-19 16:51:00,
2013-05-19 12:56:00,62.6,46.2,29.82,ENE,68,2.7,2.9,55,0.00,,---,0.00,VWS V14.01,2013-05-19 16:56:00,
2013-05-19 13:01:00,63.0,46.6,29.82,ENE,68,0.0,0.9,55,0.00,,---,0.00,VWS V14.01,2013-05-19 17:01:00,
2013-05-19 13:06:00,63.9,47.9,29.82,East,90,4.3,5.8,56,0.00,,---,0.00,VWS V14.01,2013-05-19 17:06:00,
2013-05-19 13:11:00,64.0,47.1,29.82,NE,45,3.4,3.4,54,0.00,,---,0.00,VWS V14.01,2013-05-19 17:11:00,
2013-05-19 13:17:00,64.0,47.1,29.82,SSE,158,2.5,2.7,54,0.00,,---,0.00,VWS V14.01,2013-05-19 17:17:00,
2013-05-19 13:22:00,64.0,47.1,29.82,WNW,292,2.5,2.9,54,0.00,,---,0.00,VWS V14.01,2013-05-19 17:22:00,
2013-05-19 13:27:00,64.0,46.6,29.82,NNE,22,3.4,3.4,53,0.00,,---,0.00,VWS V14.01,2013-05-19 17:27:00,
2013-05-19 13:33:00,64.0,46.6,29.82,NE,45,1.1,3.8,53,0.00,,---,0.00,VWS V14.01,2013-05-19 17:33:00,
2013-05-19 13:38:00,64.0,46.6,29.82,SW,225,1.6,2.0,53,0.00,,---,0.00,VWS V14.01,2013-05-19 17:38:00,
2013-05-19 13:43:00,64.0,46.6,29.82,ENE,68,1.3,3.1,53,0.00,,---,0.00,VWS V14.01,2013-05-19 17:43:00,
2013-05-19 13:48:00,64.0,46.6,29.82,NNE,22,1.1,2.7,53,0.00,,---,0.00,VWS V14.01,2013-05-19 17:48:00,
2013-05-19 13:54:00,64.0,46.6,29.79,ENE,68,3.1,3.1,53,0.00,,---,0.00,VWS V14.01,2013-05-19 17:54:00,
2013-05-19 13:59:00,64.0,46.6,29.79,ENE,68,1.3,3.6,53,0.00,,---,0.00,VWS V14.01,2013-05-19 17:59:00,
2013-05-19 14:05:00,65.1,46.6,29.79,NW,315,0.0,2.5,51,0.00,,---,0.00,VWS V14.01,2013-05-19 18:05:00,
2013-05-19 14:11:00,65.1,46.6,29.79,NNE,22,2.9,2.9,51,0.00,,---,0.00,VWS V14.01,2013-05-19 18:11:00,
2013-05-19 14:16:00,65.1,46.6,29.79,West,270,0.0,1.6,51,0.00,,---,0.00,VWS V14.01,2013-05-19 18:16:00,
2013-05-19 14:22:00,64.8,46.2,29.79,NNE,22,2.7,3.4,51,0.00,,---,0.00,VWS V14.01,2013-05-19 18:22:00,
2013-05-19 14:27:00,64.6,45.5,29.79,ENE,68,0.0,1.3,50,0.00,,---,0.00,VWS V14.01,2013-05-19 18:27:00,
2013-05-19 14:32:00,64.4,45.4,29.79,NE,45,2.2,2.9,50,0.00,,---,0.00,VWS V14.01,2013-05-19 18:32:00,
2013-05-19 14:37:00,64.4,45.9,29.79,West,270,1.3,1.3,51,0.00,,---,0.00,VWS V14.01,2013-05-19 18:37:00,
2013-05-19 14:43:00,64.4,45.9,29.79,ESE,112,4.0,4.0,51,0.00,,---,0.00,VWS V14.01,2013-05-19 18:43:00,
2013-05-19 14:48:00,64.4,45.9,29.79,ESE,112,0.0,0.9,51,0.00,,---,0.00,VWS V14.01,2013-05-19 18:48:00,
2013-05-19 14:54:00,64.2,46.2,29.79,NE,45,3.4,3.6,52,0.00,,---,0.00,VWS V14.01,2013-05-19 18:54:00,
2013-05-19 14:59:00,64.0,45.6,29.79,NE,45,2.5,2.5,51,0.00,,---,0.00,VWS V14.01,2013-05-19 18:59:00,
2013-05-19 15:04:00,63.9,45.9,29.79,NE,45,2.7,3.1,52,0.00,,---,0.00,VWS V14.01,2013-05-19 19:04:00,
2013-05-19 15:09:00,63.7,45.8,29.79,NW,315,0.0,0.0,52,0.00,,---,0.00,VWS V14.01,2013-05-19 19:09:00,
2013-05-19 15:14:00,63.7,45.8,29.79,NNE,22,1.1,2.0,52,0.00,,---,0.00,VWS V14.01,2013-05-19 19:14:00,
2013-05-19 15:19:00,63.9,45.9,29.79,NNE,22,3.8,3.8,52,0.00,,---,0.00,VWS V14.01,2013-05-19 19:19:00,
2013-05-19 15:25:00,64.0,46.1,29.79,WNW,292,2.5,2.7,52,0.00,,---,0.00,VWS V14.01,2013-05-19 19:25:00,
2013-05-19 15:30:00,64.0,46.1,29.79,NNE,22,2.0,2.7,52,0.00,,---,0.00,VWS V14.01,2013-05-19 19:30:00,
2013-05-19 15:35:00,64.0,46.6,29.79,SSE,158,0.0,1.6,53,0.00,,---,0.00,VWS V14.01,2013-05-19 19:35:00,
2013-05-19 15:40:00,63.9,45.9,29.79,NE,45,2.0,2.5,52,0.00,,---,0.00,VWS V14.01,2013-05-19 19:40:00,
2013-05-19 15:46:00,64.0,46.6,29.79,NNE,22,1.3,2.5,53,0.00,,---,0.00,VWS V14.01,2013-05-19 19:46:00,
2013-05-19 15:51:00,64.2,46.8,29.79,NNE,22,2.0,2.0,53,0.00,,---,0.00,VWS V14.01,2013-05-19 19:51:00,
2013-05-19 15:57:00,64.4,46.4,29.79,NNE,22,2.5,2.5,52,0.00,,---,0.00,VWS V14.01,2013-05-19 19:57:00,
2013-05-19 16:02:00,64.4,46.4,29.79,East,90,2.5,2.5,52,0.00,,---,0.00,VWS V14.01,2013-05-19 20:02:00,
2013-05-19 16:07:00,64.4,46.4,29.79,South,180,0.0,0.0,52,0.00,,---,0.00,VWS V14.01,2013-05-19 20:07:00,
2013-05-19 16:12:00,63.7,45.8,29.79,ENE,68,0.0,1.3,52,0.00,,---,0.00,VWS V14.01,2013-05-19 20:12:00,
2013-05-19 16:18:00,63.5,46.1,29.79,South,180,0.0,1.1,53,0.00,,---,0.00,VWS V14.01,2013-05-19 20:18:00,
2013-05-19 16:23:00,63.5,46.6,29.76,NE,45,2.0,2.0,54,0.00,,---,0.00,VWS V14.01,2013-05-19 20:23:00,
2013-05-19 16:28:00,63.5,46.6,29.76,SE,135,2.2,2.7,54,0.00,,---,0.00,VWS V14.01,2013-05-19 20:28:00,
2013-05-19 16:33:00,63.9,46.9,29.76,WNW,292,0.9,2.0,54,0.00,,---,0.00,VWS V14.01,2013-05-19 20:33:00,
2013-05-19 16:38:00,64.2,47.2,29.76,NE,45,2.2,2.7,54,0.00,,---,0.00,VWS V14.01,2013-05-19 20:38:00,
2013-05-19 16:43:00,64.2,46.8,29.76,SSW,202,1.6,1.6,53,0.00,,---,0.00,VWS V14.01,2013-05-19 20:43:00,
2013-05-19 16:49:00,64.2,46.8,29.76,SW,225,1.3,1.6,53,0.00,,---,0.00,VWS V14.01,2013-05-19 20:49:00,
2013-05-19 16:54:00,64.4,46.9,29.76,SW,225,0.0,0.0,53,0.00,,---,0.00,VWS V14.01,2013-05-19 20:54:00,
2013-05-19 16:59:00,64.2,47.2,29.76,SW,225,0.0,0.0,54,0.00,,---,0.00,VWS V14.01,2013-05-19 20:59:00,
2013-05-19 17:04:00,64.2,46.8,29.76,NE,45,0.0,0.0,53,0.00,,---,0.00,VWS V14.01,2013-05-19 21:04:00,
2013-05-19 17:10:00,63.9,46.9,29.76,South,180,2.2,2.5,54,0.00,,---,0.00,VWS V14.01,2013-05-19 21:10:00,
2013-05-19 17:15:00,63.7,47.2,29.76,ESE,112,0.0,0.0,55,0.00,,---,0.00,VWS V14.01,2013-05-19 21:15:00,
2013-05-19 17:20:00,63.5,47.1,29.76,South,180,2.0,2.0,55,0.00,,---,0.00,VWS V14.01,2013-05-19 21:20:00,
2013-05-19 17:26:00,63.3,46.9,29.76,WNW,292,0.0,1.6,55,0.00,,---,0.00,VWS V14.01,2013-05-19 21:26:00,
2013-05-19 17:31:00,63.3,47.4,29.76,NNE,22,1.1,1.3,56,0.00,,---,0.00,VWS V14.01,2013-05-19 21:31:00,
2013-05-19 17:36:00,63.1,47.2,29.76,WNW,292,0.0,0.0,56,0.00,,---,0.00,VWS V14.01,2013-05-19 21:36:00,
2013-05-19 17:41:00,63.0,47.0,29.76,WNW,292,0.0,0.0,56,0.00,,---,0.00,VWS V14.01,2013-05-19 21:41:00,
2013-05-19 17:47:00,63.0,47.5,29.76,WNW,292,0.0,0.0,57,0.00,,---,0.00,VWS V14.01,2013-05-19 21:47:00,
2013-05-19 17:52:00,62.8,47.3,29.76,WSW,248,0.0,2.0,57,0.00,,---,0.00,VWS V14.01,2013-05-19 21:52:00,
2013-05-19 17:57:00,62.6,47.6,29.76,East,90,1.3,1.3,58,0.00,,---,0.00,VWS V14.01,2013-05-19 21:57:00,
2013-05-19 18:03:00,62.4,47.9,29.76,SW,225,0.0,0.0,59,0.00,,---,0.00,VWS V14.01,2013-05-19 22:03:00,
2013-05-19 18:08:00,62.2,47.8,29.76,NNW,338,0.0,0.0,59,0.00,,---,0.00,VWS V14.01,2013-05-19 22:08:00,
2013-05-19 18:13:00,62.1,47.6,29.76,West,270,0.9,0.9,59,0.00,,---,0.00,VWS V14.01,2013-05-19 22:13:00,
2013-05-19 18:19:00,61.9,47.4,29.76,West,270,0.9,1.1,59,0.00,,---,0.00,VWS V14.01,2013-05-19 22:19:00,
2013-05-19 18:24:00,61.7,47.7,29.74,SSW,202,0.0,1.3,60,0.00,,---,0.00,VWS V14.01,2013-05-19 22:24:00,
2013-05-19 18:29:00,61.3,47.3,29.74,ENE,68,2.2,2.2,60,0.00,,---,0.00,VWS V14.01,2013-05-19 22:29:00,
2013-05-19 18:34:00,61.0,47.5,29.74,SSW,202,0.0,0.0,61,0.00,,---,0.00,VWS V14.01,2013-05-19 22:34:00,
2013-05-19 18:39:00,60.6,47.1,29.76,NE,45,0.0,2.2,61,0.00,,---,0.00,VWS V14.01,2013-05-19 22:39:00,
2013-05-19 18:44:00,60.4,47.4,29.76,NE,45,0.0,1.1,62,0.00,,---,0.00,VWS V14.01,2013-05-19 22:44:00,
2013-05-19 18:49:00,60.1,47.0,29.76,NE,45,0.0,0.0,62,0.00,,---,0.00,VWS V14.01,2013-05-19 22:49:00,
2013-05-19 18:55:00,59.7,47.1,29.76,NE,45,0.0,0.0,63,0.00,,---,0.00,VWS V14.01,2013-05-19 22:55:00,
2013-05-19 19:00:00,59.5,47.4,29.76,NE,45,0.0,0.0,64,0.00,,---,0.00,VWS V14.01,2013-05-19 23:00:00,
2013-05-19 19:05:00,59.4,47.2,29.76,ENE,68,0.0,1.6,64,0.00,,---,0.00,VWS V14.01,2013-05-19 23:05:00,
2013-05-19 19:10:00,59.2,47.4,29.76,West,270,0.0,0.0,65,0.00,,---,0.00,VWS V14.01,2013-05-19 23:10:00,
2013-05-19 19:16:00,58.8,47.5,29.76,SSE,158,0.0,2.0,66,0.00,,---,0.00,VWS V14.01,2013-05-19 23:16:00,
2013-05-19 19:22:00,58.5,47.6,29.76,NNW,338,0.0,0.0,67,0.00,,---,0.00,VWS V14.01,2013-05-19 23:22:00,
2013-05-19 19:27:00,58.3,47.8,29.76,NE,45,0.0,0.0,68,0.00,,---,0.00,VWS V14.01,2013-05-19 23:27:00,
2013-05-19 19:32:00,58.1,48.0,29.76,NE,45,0.0,0.0,69,0.00,,---,0.00,VWS V14.01,2013-05-19 23:32:00,
2013-05-19 19:37:00,57.7,48.0,29.76,SW,225,1.6,1.6,70,0.00,,---,0.00,VWS V14.01,2013-05-19 23:37:00,
2013-05-19 19:42:00,57.4,48.1,29.76,SW,225,0.0,0.0,71,0.00,,---,0.00,VWS V14.01,2013-05-19 23:42:00,
2013-05-19 19:47:00,57.2,48.3,29.76,SW,225,0.0,0.0,72,0.00,,---,0.00,VWS V14.01,2013-05-19 23:47:00,
2013-05-19 19:53:00,56.8,48.3,29.76,WSW,248,1.6,1.6,73,0.00,,---,0.00,VWS V14.01,2013-05-19 23:53:00,
2013-05-19 19:58:00,56.7,48.5,29.76,WSW,248,0.0,0.0,74,0.00,,---,0.00,VWS V14.01,2013-05-19 23:58:00,
2013-05-19 20:03:00,56.5,48.3,29.76,WSW,248,0.0,0.0,74,0.00,,---,0.00,VWS V14.01,2013-05-20 00:03:00,
2013-05-19 20:09:00,56.3,48.1,29.76,SSE,158,2.5,2.5,74,0.00,,---,0.00,VWS V14.01,2013-05-20 00:09:00,
2013-05-19 20:14:00,56.1,48.3,29.76,ESE,112,2.2,2.9,75,0.00,,---,0.00,VWS V14.01,2013-05-20 00:14:00,
2013-05-19 20:19:00,55.9,48.1,29.76,SSE,158,0.0,0.0,75,0.00,,---,0.00,VWS V14.01,2013-05-20 00:19:00,
2013-05-19 20:24:00,55.8,48.3,29.76,ENE,68,2.5,2.5,76,0.00,,---,0.00,VWS V14.01,2013-05-20 00:24:00,
2013-05-19 20:29:00,55.6,48.2,29.76,NE,45,0.0,0.9,76,0.00,,---,0.00,VWS V14.01,2013-05-20 00:29:00,
2013-05-19 20:35:00,55.2,48.2,29.76,NE,45,0.0,0.0,77,0.00,,---,0.00,VWS V14.01,2013-05-20 00:35:00,
2013-05-19 20:41:00,55.0,48.3,29.76,NE,45,0.0,0.0,78,0.00,,---,0.00,VWS V14.01,2013-05-20 00:41:00,
2013-05-19 20:47:00,54.9,48.1,29.76,NNE,22,0.0,0.0,78,0.00,,---,0.00,VWS V14.01,2013-05-20 00:47:00,
2013-05-19 20:52:00,54.7,48.3,29.76,NNE,22,1.3,1.3,79,0.00,,---,0.00,VWS V14.01,2013-05-20 00:52:00,
2013-05-19 20:57:00,54.5,48.5,29.76,NNE,22,1.1,1.3,80,0.00,,---,0.00,VWS V14.01,2013-05-20 00:57:00,
2013-05-19 21:02:00,54.5,48.5,29.76,NNE,22,0.9,0.9,80,0.00,,---,0.00,VWS V14.01,2013-05-20 01:02:00,
2013-05-19 21:08:00,54.3,48.3,29.76,ENE,68,1.3,2.0,80,0.00,,---,0.00,VWS V14.01,2013-05-20 01:08:00,
2013-05-19 21:13:00,54.1,48.5,29.76,ENE,68,0.0,0.0,81,0.00,,---,0.00,VWS V14.01,2013-05-20 01:13:00,
2013-05-19 21:18:00,54.0,48.3,29.76,NNE,22,2.7,2.7,81,0.00,,---,0.00,VWS V14.01,2013-05-20 01:18:00,
2013-05-19 21:24:00,53.8,48.1,29.76,NNE,22,1.3,1.3,81,0.00,,---,0.00,VWS V14.01,2013-05-20 01:24:00,
2013-05-19 21:29:00,53.6,47.9,29.76,ENE,68,2.0,2.0,81,0.00,,---,0.00,VWS V14.01,2013-05-20 01:29:00,
2013-05-19 21:34:00,53.4,48.1,29.76,NNE,22,0.0,0.0,82,0.00,,---,0.00,VWS V14.01,2013-05-20 01:34:00,
2013-05-19 21:39:00,53.2,48.2,29.76,NNE,22,0.0,0.0,83,0.00,,---,0.00,VWS V14.01,2013-05-20 01:39:00,
2013-05-19 21:44:00,53.1,48.0,29.76,NNE,22,0.0,0.0,83,0.04,,---,0.04,VWS V14.01,2013-05-20 01:44:00,
2013-05-19 21:50:00,53.1,48.0,29.76,NNE,22,1.1,2.9,83,0.04,,---,0.04,VWS V14.01,2013-05-20 01:50:00,
2013-05-19 21:55:00,52.9,47.9,29.76,WNW,292,0.0,0.0,83,0.04,,---,0.04,VWS V14.01,2013-05-20 01:55:00,
2013-05-19 22:00:00,52.7,48.0,29.76,NNW,338,1.3,2.0,84,0.04,,---,0.04,VWS V14.01,2013-05-20 02:00:00,
2013-05-19 22:05:00,52.7,48.0,29.76,NW,315,0.0,0.0,84,0.04,,---,0.04,VWS V14.01,2013-05-20 02:05:00,
2013-05-19 22:12:00,52.5,47.8,29.76,ENE,68,1.1,1.6,84,0.08,,---,0.08,VWS V14.01,2013-05-20 02:12:00,
2013-05-19 22:18:00,52.5,48.2,29.76,East,90,0.0,0.0,85,0.08,,---,0.08,VWS V14.01,2013-05-20 02:18:00,
2013-05-19 22:23:00,52.3,48.0,29.76,ENE,68,3.6,3.6,85,0.08,,---,0.08,VWS V14.01,2013-05-20 02:23:00,
2013-05-19 22:28:00,52.2,47.8,29.76,NNE,22,0.0,0.0,85,0.08,,---,0.08,VWS V14.01,2013-05-20 02:28:00,
2013-05-19 22:33:00,52.2,47.8,29.76,NNE,22,0.0,1.6,85,0.08,,---,0.08,VWS V14.01,2013-05-20 02:33:00,
2013-05-19 22:39:00,52.2,47.8,29.76,ENE,68,0.0,2.5,85,0.08,,---,0.08,VWS V14.01,2013-05-20 02:39:00,
2013-05-19 22:44:00,52.0,47.9,29.76,ENE,68,1.6,2.0,86,0.04,,---,0.08,VWS V14.01,2013-05-20 02:44:00,
2013-05-19 22:49:00,52.0,47.9,29.76,East,90,4.9,4.9,86,0.09,,---,0.13,VWS V14.01,2013-05-20 02:49:00,
2013-05-19 22:55:00,51.8,47.8,29.76,ENE,68,2.0,2.9,86,0.09,,---,0.13,VWS V14.01,2013-05-20 02:55:00,
2013-05-19 23:00:00,51.8,48.1,29.76,NNE,22,2.5,2.5,87,0.09,,---,0.13,VWS V14.01,2013-05-20 03:00:00,
2013-05-19 23:05:00,51.6,47.9,29.76,NNE,22,1.1,1.1,87,0.09,,---,0.13,VWS V14.01,2013-05-20 03:05:00,
2013-05-19 23:11:00,51.6,48.2,29.76,NNE,22,0.0,0.0,88,0.05,,---,0.13,VWS V14.01,2013-05-20 03:11:00,
2013-05-19 23:16:00,51.6,47.9,29.76,NNE,22,0.0,1.6,87,0.05,,---,0.13,VWS V14.01,2013-05-20 03:16:00,
2013-05-19 23:21:00,51.6,48.2,29.76,NNE,22,0.9,1.3,88,0.05,,---,0.13,VWS V14.01,2013-05-20 03:21:00,
2013-05-19 23:26:00,51.6,48.2,29.74,ENE,68,1.1,1.3,88,0.05,,---,0.13,VWS V14.01,2013-05-20 03:26:00,
2013-05-19 23:31:00,51.4,48.0,29.74,NNE,22,0.0,1.6,88,0.05,,---,0.13,VWS V14.01,2013-05-20 03:31:00,
2013-05-19 23:36:00,51.4,48.0,29.74,ENE,68,0.0,0.0,88,0.05,,---,0.13,VWS V14.01,2013-05-20 03:36:00,
2013-05-19 23:42:00,51.3,47.8,29.74,NNE,22,0.0,0.0,88,0.05,,---,0.13,VWS V14.01,2013-05-20 03:42:00,
2013-05-19 23:47:00,51.3,47.8,29.74,North,0,0.0,0.0,88,0.09,,---,0.17,VWS V14.01,2013-05-20 03:47:00,
2013-05-19 23:52:00,51.3,47.8,29.74,North,0,1.1,1.1,88,0.04,,---,0.17,VWS V14.01,2013-05-20 03:52:00,
2013-05-19 23:58:00,51.3,48.1,29.74,ENE,68,0.0,1.6,89,0.04,,---,0.17,VWS V14.01,2013-05-20 03:58:00,